#timestamp,LO_Frequency,Hit,StdDev 
1455505215.6,286047737.0,P
1455505235.5,286047031.9,N
1455505255.3,286047034.7,N
1455505275.1,286047034.1,N
1455505295.9,286047033.9,N
1455505315.7,286047036.2,N
1455505335.5,286047736.5,N
1455505355.4,286047736.4,N
1455505375.2,286047736.7,N
1455505395.1,286047736.8,N
1455505396.0,286047736.8,N
1455505415.8,286047734.2,N
1455505435.6,286047734.4,N
1455505455.5,286047734.2,N
1455505475.3,286047737.1,N
1455505495.1,286047734.7,N
1455505515.9,286047734.3,N
1455505535.7,286047734.9,N
1455505555.6,286047733.0,N
1455505575.4,286047732.5,N
1455505595.2,286047735.5,N
1455505615.1,286047733.4,N
1455505616.0,286047733.4,N
1455505635.8,286047732.7,N
1455505655.7,286047733.2,N
1455505675.5,286047735.6,N
1455505695.3,286047735.6,N
1455505715.2,286047732.8,N
1455505735.0,286047733.4,N
1455505735.9,286047733.4,N
1455505755.7,286047733.4,N
1455505775.6,286047733.7,N
1455505795.4,286047733.8,Y
1455505815.3,286047091.8,P
1455505835.1,286047093.9,N
1455505836.0,286047093.9,N
1455505855.8,286047091.1,N
1455505875.7,286047093.4,N
1455505895.5,286047091.8,N
1455505915.3,286047091.6,N
1455505935.2,286047091.0,N
1455505955.0,286047091.1,N
1455505955.9,286047091.1,N
1455505975.8,286047092.2,N
1455505995.6,286047091.8,N
1455506015.4,286047091.2,N
1455506035.3,286047092.4,N
1455506055.1,286047091.7,N
1455506075.9,286047092.3,N
1455506095.7,286047090.1,N
1455506115.5,286047090.6,N
1455506135.4,286047087.8,N
1455506155.2,286047090.6,N
1455506175.0,286047090.1,N
1455506175.9,286047090.1,N
1455506195.8,286047088.1,N
1455506215.6,286047090.7,N
1455506235.5,286047090.4,N
1455506255.3,286047090.3,N
1455506275.1,286047090.8,N
1455506295.9,286047088.4,N
1455506315.7,286047088.5,N
1455506335.5,286047088.2,N
1455506355.4,286047088.3,Y
1455506375.2,286046998.6,P
1455506395.1,286047001.1,N
1455506396.0,286047001.1,N
1455506415.8,286046997.4,N
1455506435.6,286047000.7,N
1455506455.5,286047000.4,N
1455506475.3,286047000.9,N
1455506495.1,286047000.7,N
1455506515.9,286047000.0,N
1455506535.7,286047000.1,N
1455506555.6,286047000.1,N
1455506575.4,286047000.2,N
1455506595.2,286046999.7,N
1455506615.1,286046999.8,N
1455506616.0,286046999.8,N
1455506635.8,286047000.0,N
1455506655.6,286047000.5,N
1455506675.5,286047000.5,N
1455506695.3,286047000.7,N
1455506715.2,286047000.8,N
1455506735.9,286046998.5,N
1455506755.7,286046998.4,N
1455506775.6,286046998.7,N
1455506795.4,286047000.7,N
1455506815.2,286046566.3,Y
1455506835.1,286046564.2,P
1455506836.0,286046564.2,N
1455506855.8,286046585.4,N
1455506875.7,286046563.4,N
1455506895.5,286046563.4,N
1455506915.3,286046563.8,N
1455506935.2,286046564.3,N
1455506955.0,286046562.9,Y
1455506955.9,286046562.9,P
1455506975.7,286046943.6,N
1455506995.6,286046942.9,N
1455507015.4,286047281.0,N
1455507035.3,286046942.4,N
1455507055.1,286046943.0,N
1455507056.0,286046943.0,N
1455507075.8,286047012.6,N
1455507095.7,286046976.2,N
1455507115.5,286047015.2,N
1455507135.3,286047015.3,N
1455507155.2,286047012.9,N
1455507175.0,286047014.8,N
1455507175.9,286047014.8,N
1455507195.8,286047014.3,N
1455507215.6,286046974.5,N
1455507235.4,286047017.1,N
1455507255.3,286047016.8,N
1455507275.1,286047016.0,N
1455507295.8,286047016.8,N
1455507315.7,286047002.9,N
1455507335.5,286047014.8,N
1455507355.3,286047014.6,N
1455507375.2,286047014.3,N
1455507395.0,286047012.7,N
1455507395.9,286047012.7,N
1455507415.8,286047015.4,N
1455507435.6,286047015.3,N
1455507455.4,286047015.4,N
1455507475.3,286046944.8,N
1455507495.1,286046946.7,N
1455507515.8,286046943.8,N
1455507535.7,286046943.7,N
1455507555.5,286046944.0,N
1455507575.4,286046946.6,N
1455507595.2,286046942.3,N
1455507615.0,286046940.9,N
1455507615.9,286046940.9,N
1455507635.8,286046940.6,N
1455507655.6,286046981.0,N
1455507675.4,286046979.4,N
1455507695.3,286046979.0,N
1455507715.1,286047362.5,Y
1455507735.9,286046993.7,P
1455507755.7,286047376.2,P
1455507775.5,286047376.6,N
1455507795.4,286047376.3,N
1455507815.2,286047376.4,N
1455507835.0,286047352.8,N
1455507835.9,286047352.8,N
1455507855.8,286047376.6,N
1455507875.6,286047376.2,N
1455507895.5,286047378.5,N
1455507915.3,286047376.3,N
1455507935.1,286047376.6,N
1455507955.9,286047376.7,N
1455507975.7,286047377.1,N
1455507995.5,286047377.2,N
1455508015.4,286047376.2,N
1455508035.2,286047376.5,Y
1455508055.1,286047049.2,P
1455508056.0,286047049.2,N
1455508075.8,286047048.7,N
1455508095.6,286047046.6,N
1455508115.5,286047046.9,N
1455508135.3,286047050.8,N
1455508155.1,286047048.7,N
1455508175.9,286047046.6,N
1455508195.7,286047048.3,N
1455508215.6,286047050.2,N
1455508235.4,286047048.3,N
1455508255.2,286047048.6,N
1455508275.1,286047049.0,N
1455508276.0,286047049.0,N
1455508295.8,286047048.4,N
1455508315.6,286047049.1,N
1455508335.5,286047050.0,N
1455508355.3,286047050.8,N
1455508375.1,286047050.7,N
1455508395.9,286047048.0,N
1455508415.7,286047048.9,N
1455508435.6,286047048.5,N
1455508455.4,286047048.0,N
1455508475.2,286047050.4,N
1455508495.1,286047050.7,N
1455508496.0,286047050.7,N
1455508515.8,286047049.9,N
1455508535.6,286047051.1,N
1455508555.5,286047052.1,N
1455508575.3,286047055.0,N
1455508595.2,286047049.8,Y
1455508615.9,286047815.3,P
1455508635.7,286046972.7,N
1455508655.6,286046972.9,N
1455508675.4,286047004.2,N
1455508695.2,286047004.1,N
1455508715.1,286047003.6,N
1455508716.0,286047003.6,N
1455508735.8,286047003.3,N
1455508755.7,286047003.4,N
1455508775.5,286047006.0,N
1455508795.3,286047005.3,N
